This is the latest recevied weather packets stored in our database for station/object KQ7A. If no packets are shown the sender has not sent any weather packets the latest 10 day(s).
| Time | Temp. | Humidity | Pressure | Rain* | Wind** | Luminosity | Snow |
|---|---|---|---|---|---|---|---|
| 1778153571 | 7.78° C | 72% | 1021.8 hPa | 0 mm | - | 0 W/m² | - |
| 1778153269 | 7.78° C | 73% | 1021.6 hPa | 0 mm | - | 0 W/m² | - |
| 1778152965 | 7.22° C | 77% | 1021.8 hPa | 0 mm | - | 0 W/m² | - |
| 1778152663 | 6.11° C | 82% | 1021.4 hPa | 0 mm | - | 0 W/m² | - |
| 1778152359 | 6.11° C | 84% | 1021.8 hPa | 0 mm | - | 0 W/m² | - |
| 1778152055 | 6.67° C | 83% | 1022 hPa | 0 mm | - | 0 W/m² | - |
| 1778151752 | 7.22° C | 79% | 1022.1 hPa | 0 mm | - | 0 W/m² | - |
| 1778151449 | 7.22° C | 79% | 1021.9 hPa | 0 mm | - | 0 W/m² | - |
| 1778151145 | 7.78° C | 76% | 1021.9 hPa | 0 mm | - | 0 W/m² | - |
| 1778150842 | 8.33° C | 73% | 1021.8 hPa | 0 mm | - | 0 W/m² | - |
| 1778150539 | 8.33° C | 73% | 1021.8 hPa | 0 mm | - | 0 W/m² | - |
| 1778150235 | 7.78° C | 74% | 1021.8 hPa | 0 mm | - | 0 W/m² | - |
| 1778149931 | 7.78° C | 75% | 1021.9 hPa | 0 mm | - | 0 W/m² | - |
| 1778149628 | 7.78° C | 76% | 1021.6 hPa | 0 mm | - | 0 W/m² | - |
| 1778149324 | 7.78° C | 76% | 1021.9 hPa | 0 mm | - | 0 W/m² | - |
| 1778149020 | 7.78° C | 77% | 1021.8 hPa | 0 mm | - | 0 W/m² | - |
| 1778148716 | 7.78° C | 76% | 1022 hPa | 0 mm | - | 0 W/m² | - |
| 1778148414 | 7.78° C | 74% | 1022 hPa | 0 mm | - | 0 W/m² | - |
| 1778148112 | 7.78° C | 76% | 1022 hPa | 0 mm | - | 0 W/m² | - |
| 1778147809 | 8.89° C | 73% | 1022.2 hPa | 0 mm | - | 0 W/m² | - |
| 1778147506 | 8.89° C | 70% | 1021.9 hPa | 0 mm | - | 0 W/m² | - |
| 1778147202 | 8.33° C | 72% | 1021.8 hPa | 0 mm | - | 0 W/m² | - |
| 1778146899 | 8.33° C | 72% | 1021.8 hPa | 0 mm | - | 0 W/m² | - |
| 1778146597 | 8.33° C | 73% | 1021.9 hPa | 0 mm | - | 0 W/m² | - |
| 1778146295 | 8.33° C | 70% | 1022.1 hPa | 0 mm | - | 0 W/m² | - |
* Rain latest hour (hover to see other rain measurements)
** Current wind speed in m/s (hover to see current wind gust speed)